User: anonymous   Login
Location: Unspecified
(0.0000°N, 0.0000°E)
Time: 08:11:04
(UTC+00:00)
Language:

USA 253 - Orbit

View from above orbital plane
View from above orbital plane
View from above satellite
View from above satellite

Ground track
Ground track

The orbit data is extracted from the following two-line orbital elements,

1 40099U 14043A   20056.59334936 -.00000142  00000-0  00000+0 0  9996
2 40099   0.0930 123.8995 0005412 351.7851 332.6097  1.00270988  4969
Epoch (UTC): 25 February 2020 14:14:25
Eccentricity: 0.0005412
inclination: 0.0930°
perigee height: 35763 km
apogee height: 35809 km
right ascension of ascending node: 123.8995°
argument of perigee: 351.7851°
revolutions per day: 1.00270988
mean anomaly at epoch: 332.6097°
orbit number at epoch: 496

The dashed part of the orbit path shows where the satellite is in the earth's shadow,  

DLR